Location: Balsareny
(41.8670°N, 1.8830°E)
Time: 21:07:11
(UTC+01:00)

ISS - Pass Details

Date: 04 December 2021
Orbit: 413 x 422 km, 51.6° (Epoch: 25 January)

Event Time Altitude Azimuth Distance (km) Brightness Sun altitude
Rises 19:24:16 0° 305° (NW) 2,382 0.7 -22.2°
Reaches altitude 10° 19:26:23 10° 306° (NW) 1,512 -0.4 -22.6°
Enters shadow 19:28:37 38° 311° (NW) 658 -2.6 -23.0°
